Tracking 28514 objects as of 23-Feb-2024
HD Live streaming from Space Station
objects crossing your sky now

STARLINK-3738

Track STARLINK-3738 now!
10-day predictions
STARLINK-3738 is classified as:


NORAD ID: 52117
Int'l Code: 2022-029AF
Perigee: 545.9 km
Apogee: 547.8 km
Inclination: 53.2 °
Period: 95.4 minutes
Semi major axis: 6917 km
RCS: Unknown
Launch date: March 19, 2022
Source: United States (US)
Launch site: AIR FORCE EASTERN TEST RANGE (AFETR)
Your satellite tracking list
Your tracking list is empty




NASA's NSSDC Master Catalog

Two Line Element Set (TLE):
1 52117U 22029AF  24054.72363781  .00001609  00000-0  11913-3 0  9997
2 52117  53.2179 183.4054 0001360  89.0002 271.1146 15.08842903108336
Source of the keplerian elements: AFSPC